Meteo orario Kozinka

Oggi, 2 Marzo, Martedi

Tempo Temperatura Precipitazioni Vento Pressione Umidità
00:00 0°C° 0 mm 5 m/s 739 mm Hg 90%
01:00 0°C° 0 mm 5 m/s 739 mm Hg 90%
02:00 0°C° 0 mm 5 m/s 739 mm Hg 90%
03:00 0°C° 0 mm 5 m/s 738 mm Hg 90%
04:00 -1°C° 0 mm 5 m/s 738 mm Hg 90%
05:00 -1°C° 0 mm 5 m/s 737 mm Hg 90%
06:00 -1°C° 0 mm 5 m/s 737 mm Hg 89%
07:00 -1°C° 0 mm 5 m/s 737 mm Hg 89%
08:00 -1°C° 0 mm 5 m/s 737 mm Hg 87%
09:00 -1°C° 0 mm 5 m/s 737 mm Hg 89%
10:00 -1°C° 0 mm 5 m/s 737 mm Hg 91%
11:00 -1°C° 0 mm 5 m/s 737 mm Hg 93%
12:00 -1°C° 0.2 mm 5 m/s 737 mm Hg 92%
13:00 -1°C° 0.2 mm 5 m/s 737 mm Hg 92%
14:00 -1°C° 0 mm 4 m/s 737 mm Hg 93%
15:00 -1°C° 0 mm 5 m/s 737 mm Hg 88%
16:00 -1°C° 0 mm 5 m/s 737 mm Hg 84%
17:00 -1°C° 0 mm 5 m/s 737 mm Hg 79%
18:00 -1°C° 0 mm 5 m/s 738 mm Hg 80%
19:00 -2°C° 0 mm 5 m/s 739 mm Hg 81%
20:00 -3°C° 0 mm 6 m/s 740 mm Hg 83%
21:00 -4°C° 0 mm 5 m/s 740 mm Hg 84%
22:00 -4°C° 0 mm 5 m/s 740 mm Hg 85%
23:00 -4°C° 0 mm 4 m/s 740 mm Hg 87%

Domani, 3 Marzo, Mercoledi

Tempo Temperatura Precipitazioni Vento Pressione Umidità
00:00 -4°C° 0.1 mm 4 m/s 741 mm Hg 87%
01:00 -4°C° 0.1 mm 4 m/s 741 mm Hg 87%
02:00 -4°C° 0.1 mm 3 m/s 742 mm Hg 88%
03:00 -4°C° 0 mm 3 m/s 742 mm Hg 88%
04:00 -4°C° 0 mm 3 m/s 742 mm Hg 88%
05:00 -4°C° 0 mm 3 m/s 742 mm Hg 88%
06:00 -4°C° 0 mm 4 m/s 742 mm Hg 88%
07:00 -3°C° 0 mm 4 m/s 742 mm Hg 87%
08:00 -4°C° 0 mm 5 m/s 742 mm Hg 86%
09:00 -4°C° 0 mm 5 m/s 742 mm Hg 84%
10:00 -2°C° 0 mm 5 m/s 741 mm Hg 82%
11:00 -2°C° 0 mm 5 m/s 741 mm Hg 80%
12:00 -2°C° 0 mm 5 m/s 741 mm Hg 80%
13:00 -2°C° 0 mm 5 m/s 740 mm Hg 81%
14:00 -2°C° 0 mm 5 m/s 740 mm Hg 81%
15:00 -2°C° 0 mm 5 m/s 739 mm Hg 82%
16:00 -2°C° 0 mm 5 m/s 739 mm Hg 83%
17:00 -2°C° 0 mm 5 m/s 738 mm Hg 83%
18:00 -2°C° 0.2 mm 5 m/s 738 mm Hg 88%
19:00 -2°C° 0.2 mm 5 m/s 737 mm Hg 92%
20:00 -1°C° 0.2 mm 5 m/s 737 mm Hg 96%
21:00 -1°C° 0 mm 5 m/s 736 mm Hg 93%
22:00 -1°C° 0 mm 5 m/s 735 mm Hg 90%
23:00 -1°C° 0 mm 5 m/s 734 mm Hg 87%

Dopodomani, 4 Marzo, Giovedi

Tempo Temperatura Precipitazioni Vento Pressione Umidità
00:00 -1°C° 0 mm 5 m/s 733 mm Hg 87%
01:00 -2°C° 0 mm 5 m/s 733 mm Hg 87%
02:00 -2°C° 0 mm 5 m/s 732 mm Hg 87%
03:00 -2°C° 0.1 mm 5 m/s 732 mm Hg 89%
04:00 -2°C° 0.1 mm 5 m/s 731 mm Hg 92%
05:00 -2°C° 0.1 mm 4 m/s 730 mm Hg 95%
06:00 -2°C° 0.3 mm 4 m/s 730 mm Hg 95%
07:00 -1°C° 0.3 mm 3 m/s 730 mm Hg 95%
08:00 -1°C° 0.3 mm 3 m/s 730 mm Hg 95%
09:00 -1°C° 0.4 mm 3 m/s 730 mm Hg 95%
10:00 -1°C° 0.4 mm 2 m/s 729 mm Hg 95%
11:00 -1°C° 0.4 mm 2 m/s 729 mm Hg 94%
12:00 -1°C° 0.7 mm 2 m/s 729 mm Hg 94%
13:00 -2°C° 0.7 mm 2 m/s 729 mm Hg 94%
14:00 -2°C° 0.7 mm 3 m/s 729 mm Hg 94%
15:00 -2°C° 0.5 mm 2 m/s 728 mm Hg 91%
16:00 -3°C° 0.5 mm 2 m/s 728 mm Hg 89%
17:00 -4°C° 0.5 mm 2 m/s 728 mm Hg 87%
18:00 -4°C° 0 mm 2 m/s 728 mm Hg 87%
19:00 -2°C° 0 mm 1 m/s 729 mm Hg 86%
20:00 -2°C° 0 mm 1 m/s 729 mm Hg 86%
21:00 -3°C° 0 mm 1 m/s 729 mm Hg 87%
22:00 -4°C° 0 mm 1 m/s 729 mm Hg 89%
23:00 -7°C° 0 mm 2 m/s 730 mm Hg 90%

5 Marzo, Venerdi

Tempo Temperatura Precipitazioni Vento Pressione Umidità
00:00 -6°C° 0 mm 1 m/s 730 mm Hg 91%
01:00 -6°C° 0 mm 1 m/s 731 mm Hg 92%
02:00 -7°C° 0 mm 1 m/s 731 mm Hg 93%
03:00 -7°C° 0.1 mm 2 m/s 731 mm Hg 93%
04:00 -7°C° 0.1 mm 2 m/s 732 mm Hg 93%
05:00 -7°C° 0.1 mm 2 m/s 732 mm Hg 93%
06:00 -7°C° 0 mm 2 m/s 733 mm Hg 91%
07:00 -8°C° 0 mm 3 m/s 733 mm Hg 89%
08:00 -8°C° 0 mm 3 m/s 733 mm Hg 87%
09:00 -7°C° 0 mm 3 m/s 734 mm Hg 81%
10:00 -7°C° 0 mm 3 m/s 734 mm Hg 76%
11:00 -6°C° 0 mm 3 m/s 734 mm Hg 70%
12:00 -6°C° 0 mm 3 m/s 735 mm Hg 69%
13:00 -6°C° 0 mm 3 m/s 735 mm Hg 67%
14:00 -5°C° 0 mm 3 m/s 735 mm Hg 66%
15:00 -6°C° 0.1 mm 3 m/s 736 mm Hg 70%
16:00 -6°C° 0.1 mm 2 m/s 736 mm Hg 73%
17:00 -6°C° 0.1 mm 2 m/s 736 mm Hg 77%
18:00 -7°C° 0 mm 2 m/s 736 mm Hg 80%
19:00 -8°C° 0 mm 2 m/s 737 mm Hg 83%
20:00 -8°C° 0 mm 1 m/s 737 mm Hg 86%
21:00 -8°C° 0 mm 1 m/s 738 mm Hg 88%
22:00 -9°C° 0 mm 1 m/s 738 mm Hg 89%
23:00 -9°C° 0 mm 1 m/s 738 mm Hg 91%

6 Marzo, Sabato

Tempo Temperatura Precipitazioni Vento Pressione Umidità
00:00 -9°C° 0 mm 1 m/s 739 mm Hg 92%
01:00 -10°C° 0 mm 1 m/s 739 mm Hg 93%
02:00 -10°C° 0 mm 1 m/s 739 mm Hg 94%
03:00 -10°C° 0 mm 1 m/s 739 mm Hg 95%
04:00 -12°C° 0 mm 2 m/s 739 mm Hg 95%
05:00 -12°C° 0 mm 2 m/s 739 mm Hg 95%
06:00 -12°C° 0 mm 2 m/s 740 mm Hg 93%
07:00 -10°C° 0 mm 2 m/s 740 mm Hg 92%
08:00 -10°C° 0 mm 2 m/s 740 mm Hg 90%
09:00 -9°C° 0 mm 2 m/s 740 mm Hg 84%
10:00 -9°C° 0 mm 3 m/s 740 mm Hg 79%
11:00 -8°C° 0 mm 3 m/s 741 mm Hg 74%
12:00 -8°C° 0 mm 3 m/s 740 mm Hg 72%
13:00 -8°C° 0 mm 3 m/s 740 mm Hg 71%
14:00 -7°C° 0 mm 3 m/s 740 mm Hg 69%
15:00 -8°C° 0 mm 3 m/s 739 mm Hg 72%
16:00 -8°C° 0 mm 3 m/s 739 mm Hg 75%
17:00 -8°C° 0 mm 3 m/s 738 mm Hg 78%
18:00 -9°C° 0 mm 4 m/s 737 mm Hg 77%
19:00 -9°C° 0 mm 4 m/s 737 mm Hg 76%
20:00 -10°C° 0 mm 5 m/s 736 mm Hg 74%
21:00 -10°C° 0.1 mm 6 m/s 735 mm Hg 80%
22:00 -10°C° 0.1 mm 6 m/s 734 mm Hg 85%
23:00 -11°C° 0.1 mm 7 m/s 732 mm Hg 90%

7 Marzo, Domenica

Tempo Temperatura Precipitazioni Vento Pressione Umidità
00:00 -9°C° 0.4 mm 7 m/s 731 mm Hg 90%
01:00 -9°C° 0.4 mm 7 m/s 730 mm Hg 91%
02:00 -8°C° 0.4 mm 7 m/s 729 mm Hg 91%
03:00 -8°C° 0.5 mm 7 m/s 727 mm Hg 92%
04:00 -8°C° 0.5 mm 8 m/s 726 mm Hg 92%
05:00 -7°C° 0.5 mm 8 m/s 724 mm Hg 92%
06:00 -7°C° 0.4 mm 8 m/s 724 mm Hg 92%
07:00 -6°C° 0.4 mm 8 m/s 723 mm Hg 91%
08:00 -5°C° 0.4 mm 9 m/s 722 mm Hg 90%
09:00 -6°C° 1 mm 9 m/s 722 mm Hg 88%
10:00 -8°C° 1 mm 9 m/s 722 mm Hg 86%
11:00 -8°C° 1 mm 8 m/s 722 mm Hg 84%
12:00 -8°C° 0.1 mm 8 m/s 722 mm Hg 77%
13:00 -10°C° 0.1 mm 8 m/s 722 mm Hg 71%
14:00 -10°C° 0.1 mm 8 m/s 723 mm Hg 65%
15:00 -10°C° 0 mm 8 m/s 723 mm Hg 68%
16:00 -10°C° 0 mm 8 m/s 723 mm Hg 70%
17:00 -11°C° 0 mm 7 m/s 723 mm Hg 72%
18:00 -11°C° 0 mm 7 m/s 723 mm Hg 74%
19:00 -11°C° 0 mm 7 m/s 723 mm Hg 76%
20:00 -12°C° 0 mm 7 m/s 723 mm Hg 78%
21:00 -11°C° 0 mm 6 m/s 723 mm Hg 78%
22:00 -11°C° 0 mm 6 m/s 723 mm Hg 79%
23:00 -12°C° 0 mm 6 m/s 724 mm Hg 79%
Mostrare altro